Weather Roundup
Issued by NWS Corpus Christi, TX

Home | Current Version | Previous Version | Text Only | Print | Product List | Glossary On
Versions: 1 2 3 4 5 6 7 8 9 10 11 12 13 14 15 16 17 18 19 20 21 22 23 24 25 26 27 28 29 30 31 32 33 34 35 36 37 38 39 40 41 42 43 44 45 46 47 48 49 50
000
ASUS44 KCRP 021110
HRRCRP

SOUTH TEXAS REGIONAL WEATHER ROUNDUP
NATIONAL WEATHER SERVICE CORPUS CHRISTI TX
500 AM CST MON MAR 02 2015


TXZ229>244-021200-
...CORPUS CHRISTI AREA OBSERVATIONS...

CITY           SKY/WX    TMP DP  RH WIND       PRES   REMARKS
CORPUS CHRISTI LGT RAIN  48  46  93 N12       30.23S FOG
NAS CORPUS CHR CLOUDY    49  49 100 N15       30.22S
ROCKPORT       CLOUDY    49  47  93 N10       30.23S FOG
KINGSVILLE NAS CLOUDY    48  48 100 N9        30.23F FOG
ALICE          CLOUDY    47  45  93 N10       30.23F FOG
FALFURRIAS     CLOUDY    48  47  94 N6        30.22F
$$

...VICTORIA AREA OBSERVATIONS...

CITY           SKY/WX    TMP DP  RH WIND       PRES   REMARKS
VICTORIA       CLOUDY    45  44  97 N12       30.26S FOG
BEEVILLE       CLOUDY    44  44 100 N12       30.24S FOG
PLEASANTON     CLOUDY    42  41  95 NE5       30.28R
SAN ANTONIO    CLOUDY    42  39  89 N13       30.27S
$$

...LAREDO AREA OBSERVATIONS...

CITY           SKY/WX    TMP DP  RH WIND       PRES   REMARKS
LAREDO         CLOUDY    47  46  96 N9        30.26S
COTULLA        CLOUDY    46  44  93 NE9       30.26S FOG
DEL RIO        CLOUDY    44  43  96 NW5       30.26S FOG
MCALLEN        LGT RAIN  53  52  96 N8        30.21S FOG
HEBBRONVILLE   HVY RAIN N/A N/A N/A N7        30.22F
$$

...OTHER TEXAS OBSERVATIONS...

CITY           SKY/WX    TMP DP  RH WIND       PRES   REMARKS
BROWNSVILLE    CLOUDY    54  53  97 N7        30.19S FOG
HOUSTON        FOG       48  47  96 NW6       30.26R VSB 1/4
COL. STATION   CLOUDY    40  40 100 N10       30.30S WCI  33
AUSTIN         LGT RAIN  38  38 100 N9        30.31R FOG
WACO           LGT RAIN  36  35  96 N12       30.34S FOG     WCI  28
FORT WORTH     CLOUDY    34  32  92 N14       30.35F WCI  25
WICHITA FALLS  CLOUDY    31  25  78 N13       30.41S WCI  21
LUBBOCK        FOG       28  27  96 E9        30.30S VSB 1
EL PASO        CLOUDY    56  31  38 VRB3      30.04F
$$

...MARINE OBSERVATIONS...

STATION/POSITION TIME  SKY/WX   TEMP    WIND        PRES    VSBY  WAVE   SWELL
                                AIR SEA DIR/SP/G                  HT/PER HT/PER
                 (UTC)          (F)     (DEG/KT/KT) (MB)    (MI)  (FT/S) (FT/S)
PORT ARANSAS     1100            49 55  360/ 12/ 15 1023.2F
BUOY 90 E PORT A 1100            62 67   10/ 16/ 19 1022.2R         4/ 8   3/ 8
BUOY 45 SE BAFFI 1100            61 65  360/ 14/ 16 1021.9R         4/ 8   2/ 8
BUOY 200 E PT IS 1100            71 70  140/  4/  6 1021.7F         3/ 8   3/ 8
BUOY 15 E GALVES 1100            56 58  340/ 12/ 14 1022.4S         2/ 8   2/ 8
$$



USA.gov is the U.S. government's official web portal to all federal, state and local government web resources and services.